This is the latest recevied weather packets stored in our database for station/object DJ0JJ-11. If no packets are shown the sender has not sent any weather packets the latest 10 day(s).
| Time | Temp. | Humidity | Pressure | Rain* | Wind** | Luminosity | Snow |
|---|---|---|---|---|---|---|---|
| 1787850329 | 28.33° C | 53% | 1011.7 hPa | - | - | - | - |
| 1787849429 | 28.89° C | 53% | 1012.2 hPa | - | - | - | - |
| 1787848529 | 28.89° C | 52% | 1012.7 hPa | - | - | - | - |
| 1787847629 | 29.44° C | 50% | 1012.7 hPa | - | - | - | - |
| 1787846729 | 29.44° C | 50% | 1012.6 hPa | - | - | - | - |
| 1787845829 | 29.44° C | 45% | 1012.8 hPa | - | - | - | - |
| 1787844929 | 29.44° C | 47% | 1012.8 hPa | - | - | - | - |
| 1787844029 | 29.44° C | 47% | 1012.9 hPa | - | - | - | - |
| 1787843129 | 29.44° C | 46% | 1013.1 hPa | - | - | - | - |
| 1787842228 | 29.44° C | 47% | 1013.1 hPa | - | - | - | - |
| 1787841328 | 29.44° C | 48% | 1013.1 hPa | - | - | - | - |
| 1787840428 | 29.44° C | 47% | 1013 hPa | - | - | - | - |
| 1787839528 | 29.44° C | 46% | 1013.1 hPa | - | - | - | - |
| 1787838631 | 28.89° C | 46% | 1012.9 hPa | - | - | - | - |
| 1787837731 | 28.89° C | 51% | 1012.9 hPa | - | - | - | - |
| 1787836831 | 28.89° C | 51% | 1013.1 hPa | - | - | - | - |
| 1787835931 | 28.89° C | 53% | 1013.1 hPa | - | - | - | - |
| 1787835031 | 28.89° C | 53% | 1013.1 hPa | - | - | - | - |
| 1787834131 | 28.89° C | 54% | 1013.3 hPa | - | - | - | - |
| 1787833231 | 28.33° C | 55% | 1013.5 hPa | - | - | - | - |
| 1787832331 | 28.33° C | 56% | 1013.6 hPa | - | - | - | - |
| 1787831430 | 27.78° C | 57% | 1013.8 hPa | - | - | - | - |
| 1787830530 | 27.22° C | 61% | 1014 hPa | - | - | - | - |
| 1787829630 | 26.67° C | 63% | 1014.1 hPa | - | - | - | - |
| 1787828730 | 26.11° C | 64% | 1014.3 hPa | - | - | - | - |
* Rain since midnight (hover to see other rain measurements)
** Current wind speed in m/s (hover to see current wind gust speed)